TimeCDT,TemperatureF,Dew PointF,Humidity,Sea Level PressureIn,VisibilityMPH,Wind Direction,Wind SpeedMPH,Gust SpeedMPH,PrecipitationIn,Events,Conditions,WindDirDegrees,DateUTC
12:56 AM,48.9,26.1,41,30.05,10.0,North,8.1,-,N/A,,Clear,360,2013-03-21 05:56:00
1:56 AM,45.0,27.0,49,30.04,10.0,North,4.6,-,N/A,,Clear,10,2013-03-21 06:56:00
2:56 AM,43.0,27.0,53,30.03,10.0,NNE,4.6,-,N/A,,Clear,20,2013-03-21 07:56:00
3:56 AM,42.1,28.9,60,30.03,10.0,North,4.6,-,N/A,,Clear,10,2013-03-21 08:56:00
4:56 AM,43.0,28.9,58,30.01,10.0,North,4.6,-,N/A,,Clear,10,2013-03-21 09:56:00
5:56 AM,42.1,30.0,62,30.04,10.0,North,4.6,-,N/A,,Scattered Clouds,360,2013-03-21 10:56:00
6:56 AM,39.9,30.0,68,30.04,7.0,Calm,Calm,-,N/A,,Mostly Cloudy,0,2013-03-21 11:56:00
7:56 AM,44.1,30.9,60,30.07,10.0,North,4.6,-,N/A,,Mostly Cloudy,350,2013-03-21 12:56:00
8:56 AM,51.1,28.0,41,30.08,10.0,NNE,12.7,-,N/A,,Mostly Cloudy,20,2013-03-21 13:56:00
9:56 AM,51.1,21.9,32,30.09,10.0,North,10.4,-,N/A,,Overcast,10,2013-03-21 14:56:00
10:56 AM,55.0,21.9,28,30.06,10.0,NNE,9.2,-,N/A,,Mostly Cloudy,30,2013-03-21 15:56:00
11:56 AM,59.0,23.0,25,30.05,10.0,NE,8.1,-,N/A,,Mostly Cloudy,40,2013-03-21 16:56:00
12:56 PM,61.0,23.0,23,30.02,10.0,Variable,5.8,-,N/A,,Overcast,0,2013-03-21 17:56:00
1:56 PM,63.0,19.9,19,29.99,10.0,Variable,4.6,-,N/A,,Overcast,0,2013-03-21 18:56:00
2:56 PM,64.0,19.9,18,29.96,10.0,Calm,Calm,-,N/A,,Mostly Cloudy,0,2013-03-21 19:56:00
3:56 PM,66.0,21.0,18,29.93,10.0,ENE,3.5,-,N/A,,Scattered Clouds,60,2013-03-21 20:56:00
4:56 PM,66.0,25.0,21,29.91,10.0,SE,11.5,-,N/A,,Scattered Clouds,140,2013-03-21 21:56:00
5:56 PM,63.0,27.0,26,29.92,10.0,SE,10.4,-,N/A,,Mostly Cloudy,130,2013-03-21 22:56:00
6:56 PM,59.0,32.0,36,29.92,10.0,SSW,4.6,-,N/A,,Mostly Cloudy,200,2013-03-21 23:56:00
7:56 PM,55.0,36.0,49,29.92,10.0,South,5.8,-,N/A,,Mostly Cloudy,190,2013-03-22 00:56:00
8:56 PM,55.0,36.0,49,29.93,10.0,Calm,Calm,-,N/A,,Mostly Cloudy,0,2013-03-22 01:56:00
9:56 PM,53.1,36.0,52,29.94,10.0,SE,3.5,-,N/A,,Scattered Clouds,130,2013-03-22 02:56:00
10:56 PM,54.0,39.0,57,29.93,10.0,SSE,5.8,-,N/A,,Overcast,150,2013-03-22 03:56:00
11:56 PM,53.1,39.9,61,29.92,10.0,Calm,Calm,-,N/A,,Overcast,0,2013-03-22 04:56:00